When you browse on this site, cookies collect data to enhance your experience and personalize the content and advertising you see.
Visit our Privacy Policy to learn more. By continuing to use the site, you agree to this use of cookies and data.

Meteo pe oră la Dziemierzyce

Astăzi, 24 Septembrie, Joi

Timp Temperatura Precipitaţii Vânt Presiune Umiditate
00:00 +16°C° 0 mm 1 m/s 734 mmHg 78%
01:00 +16°C° 0 mm 1 m/s 734 mmHg 78%
02:00 +16°C° 0 mm 1 m/s 734 mmHg 77%
03:00 +16°C° 0 mm 1 m/s 734 mmHg 77%
04:00 +16°C° 0 mm 1 m/s 734 mmHg 76%
05:00 +18°C° 0 mm 1 m/s 734 mmHg 74%
06:00 +18°C° 0 mm 1 m/s 734 mmHg 73%
07:00 +19°C° 0 mm 1 m/s 734 mmHg 71%
08:00 +19°C° 0 mm 2 m/s 734 mmHg 66%
09:00 +21°C° 0 mm 3 m/s 735 mmHg 61%
10:00 +23°C° 0 mm 4 m/s 735 mmHg 55%
11:00 +23°C° 0 mm 4 m/s 735 mmHg 54%
12:00 +25°C° 0 mm 4 m/s 735 mmHg 53%
13:00 +26°C° 0 mm 3 m/s 734 mmHg 52%
14:00 +25°C° 0.8 mm 3 m/s 734 mmHg 56%
15:00 +24°C° 0.8 mm 3 m/s 734 mmHg 60%
16:00 +24°C° 0.8 mm 2 m/s 734 mmHg 64%
17:00 +21°C° 0.3 mm 2 m/s 734 mmHg 69%
18:00 +20°C° 0.3 mm 2 m/s 734 mmHg 73%
19:00 +18°C° 0.3 mm 2 m/s 734 mmHg 78%
20:00 +18°C° 0 mm 2 m/s 734 mmHg 79%
21:00 +18°C° 0 mm 1 m/s 734 mmHg 81%
22:00 +18°C° 0 mm 1 m/s 734 mmHg 82%
23:00 +18°C° 0 mm 1 m/s 734 mmHg 83%

Mâine, 25 Septembrie, Vineri

Timp Temperatura Precipitaţii Vânt Presiune Umiditate
00:00 +16°C° 0 mm 1 m/s 733 mmHg 84%
01:00 +16°C° 0 mm 1 m/s 733 mmHg 85%
02:00 +16°C° 0 mm 1 m/s 733 mmHg 86%
03:00 +15°C° 0 mm 2 m/s 732 mmHg 88%
04:00 +15°C° 0 mm 2 m/s 731 mmHg 89%
05:00 +15°C° 0 mm 2 m/s 731 mmHg 87%
06:00 +16°C° 0 mm 3 m/s 730 mmHg 85%
07:00 +16°C° 0 mm 3 m/s 730 mmHg 84%
08:00 +18°C° 0 mm 3 m/s 730 mmHg 76%
09:00 +20°C° 0 mm 4 m/s 729 mmHg 69%
10:00 +22°C° 0 mm 4 m/s 729 mmHg 62%
11:00 +22°C° 0 mm 4 m/s 729 mmHg 62%
12:00 +22°C° 0 mm 4 m/s 728 mmHg 61%
13:00 +22°C° 0 mm 4 m/s 728 mmHg 61%
14:00 +22°C° 0.2 mm 4 m/s 727 mmHg 60%
15:00 +22°C° 0.2 mm 5 m/s 727 mmHg 60%
16:00 +22°C° 0.2 mm 5 m/s 727 mmHg 60%
17:00 +21°C° 0.4 mm 4 m/s 727 mmHg 65%
18:00 +19°C° 0.4 mm 4 m/s 727 mmHg 71%
19:00 +18°C° 0.4 mm 3 m/s 727 mmHg 77%
20:00 +17°C° 0 mm 3 m/s 727 mmHg 81%
21:00 +17°C° 0 mm 2 m/s 727 mmHg 85%
22:00 +16°C° 0 mm 2 m/s 727 mmHg 88%
23:00 +15°C° 0.1 mm 2 m/s 726 mmHg 91%

Poimâine, 26 Septembrie, Sâmbătă

Timp Temperatura Precipitaţii Vânt Presiune Umiditate
00:00 +15°C° 0.1 mm 2 m/s 726 mmHg 93%
01:00 +14°C° 0.1 mm 2 m/s 726 mmHg 95%
02:00 +14°C° 0.7 mm 2 m/s 725 mmHg 95%
03:00 +15°C° 0.7 mm 2 m/s 725 mmHg 96%
04:00 +14°C° 0.7 mm 3 m/s 725 mmHg 96%
05:00 +14°C° 0 mm 4 m/s 724 mmHg 94%
06:00 +15°C° 0 mm 5 m/s 724 mmHg 92%
07:00 +16°C° 0 mm 5 m/s 723 mmHg 90%
08:00 +17°C° 0.1 mm 6 m/s 723 mmHg 83%
09:00 +20°C° 0.1 mm 7 m/s 723 mmHg 76%
10:00 +21°C° 0.1 mm 7 m/s 723 mmHg 68%
11:00 +21°C° 0.1 mm 7 m/s 723 mmHg 69%
12:00 +21°C° 0.1 mm 7 m/s 723 mmHg 70%
13:00 +20°C° 0.1 mm 6 m/s 723 mmHg 70%
14:00 +20°C° 0 mm 6 m/s 724 mmHg 70%
15:00 +20°C° 0 mm 5 m/s 724 mmHg 69%
16:00 +20°C° 0 mm 5 m/s 724 mmHg 69%
17:00 +17°C° 0.6 mm 5 m/s 724 mmHg 76%
18:00 +15°C° 0.6 mm 4 m/s 724 mmHg 83%
19:00 +14°C° 0.6 mm 4 m/s 725 mmHg 89%
20:00 +13°C° 2.4 mm 4 m/s 725 mmHg 90%
21:00 +12°C° 2.4 mm 5 m/s 725 mmHg 91%
22:00 +10°C° 2.4 mm 5 m/s 725 mmHg 91%
23:00 +10°C° 3.8 mm 6 m/s 724 mmHg 92%

27 Septembrie, Duminică

Timp Temperatura Precipitaţii Vânt Presiune Umiditate
00:00 +10°C° 3.8 mm 6 m/s 724 mmHg 93%
01:00 +9°C° 3.8 mm 7 m/s 724 mmHg 93%
02:00 +9°C° 1.8 mm 6 m/s 724 mmHg 93%
03:00 +9°C° 1.8 mm 6 m/s 724 mmHg 92%
04:00 +9°C° 1.8 mm 6 m/s 724 mmHg 92%
05:00 +9°C° 0.2 mm 6 m/s 724 mmHg 92%
06:00 +9°C° 0.2 mm 6 m/s 724 mmHg 92%
07:00 +9°C° 0.2 mm 6 m/s 723 mmHg 92%
08:00 +9°C° 3 mm 7 m/s 724 mmHg 92%
09:00 +9°C° 3 mm 7 m/s 724 mmHg 92%
10:00 +9°C° 3 mm 8 m/s 724 mmHg 92%
11:00 +9°C° 0.7 mm 8 m/s 725 mmHg 91%
12:00 +9°C° 0.7 mm 8 m/s 725 mmHg 90%
13:00 +9°C° 0.7 mm 8 m/s 725 mmHg 89%
14:00 +9°C° 0.9 mm 8 m/s 726 mmHg 89%
15:00 +9°C° 0.9 mm 7 m/s 726 mmHg 89%
16:00 +8°C° 0.9 mm 7 m/s 727 mmHg 89%
17:00 +8°C° 0.9 mm 7 m/s 727 mmHg 89%
18:00 +8°C° 0.9 mm 6 m/s 728 mmHg 90%
19:00 +8°C° 0.9 mm 6 m/s 729 mmHg 90%
20:00 +8°C° 0.3 mm 6 m/s 729 mmHg 90%
21:00 +8°C° 0.3 mm 6 m/s 730 mmHg 89%
22:00 +8°C° 0.3 mm 6 m/s 730 mmHg 88%
23:00 +7°C° 0.1 mm 5 m/s 730 mmHg 87%

28 Septembrie, Luni

Timp Temperatura Precipitaţii Vânt Presiune Umiditate
00:00 +7°C° 0.1 mm 5 m/s 731 mmHg 86%
01:00 +7°C° 0.1 mm 5 m/s 731 mmHg 86%
02:00 +7°C° 0 mm 4 m/s 731 mmHg 85%
03:00 +7°C° 0 mm 4 m/s 732 mmHg 84%
04:00 +8°C° 0 mm 3 m/s 732 mmHg 83%
05:00 +8°C° 0 mm 3 m/s 732 mmHg 82%
06:00 +8°C° 0 mm 3 m/s 733 mmHg 81%
07:00 +9°C° 0 mm 2 m/s 733 mmHg 80%
08:00 +10°C° 0 mm 3 m/s 733 mmHg 74%
09:00 +11°C° 0 mm 3 m/s 733 mmHg 67%
10:00 +12°C° 0 mm 3 m/s 733 mmHg 61%
11:00 +13°C° 0 mm 3 m/s 733 mmHg 58%
12:00 +14°C° 0 mm 3 m/s 733 mmHg 55%
13:00 +14°C° 0 mm 3 m/s 733 mmHg 51%
14:00 +14°C° 0 mm 3 m/s 733 mmHg 54%
15:00 +15°C° 0 mm 2 m/s 733 mmHg 56%
16:00 +15°C° 0 mm 2 m/s 733 mmHg 59%
17:00 +13°C° 0 mm 2 m/s 733 mmHg 63%
18:00 +12°C° 0 mm 2 m/s 733 mmHg 67%
19:00 +10°C° 0 mm 2 m/s 733 mmHg 71%
20:00 +10°C° 0 mm 2 m/s 733 mmHg 71%
21:00 +10°C° 0 mm 1 m/s 733 mmHg 70%
22:00 +10°C° 0 mm 1 m/s 734 mmHg 70%
23:00 +10°C° 0.1 mm 1 m/s 733 mmHg 71%

29 Septembrie, Marţi

Timp Temperatura Precipitaţii Vânt Presiune Umiditate
00:00 +10°C° 0.1 mm 1 m/s 733 mmHg 73%
01:00 +10°C° 0.1 mm 1 m/s 733 mmHg 74%
02:00 +10°C° 0.3 mm 1 m/s 733 mmHg 78%
03:00 +10°C° 0.3 mm 1 m/s 733 mmHg 81%
04:00 +9°C° 0.3 mm 2 m/s 733 mmHg 84%
05:00 +9°C° 0 mm 2 m/s 733 mmHg 83%
06:00 +9°C° 0 mm 2 m/s 733 mmHg 82%
07:00 +9°C° 0 mm 2 m/s 733 mmHg 81%
08:00 +10°C° 0 mm 3 m/s 733 mmHg 78%
09:00 +10°C° 0 mm 3 m/s 733 mmHg 74%
10:00 +11°C° 0 mm 4 m/s 733 mmHg 71%
11:00 +12°C° 0 mm 4 m/s 733 mmHg 67%
12:00 +13°C° 0 mm 4 m/s 733 mmHg 64%
13:00 +14°C° 0 mm 5 m/s 733 mmHg 61%
14:00 +13°C° 0 mm 4 m/s 733 mmHg 63%
15:00 +13°C° 0 mm 4 m/s 733 mmHg 65%
16:00 +13°C° 0 mm 4 m/s 733 mmHg 67%
17:00 +12°C° 0 mm 4 m/s 734 mmHg 70%
18:00 +12°C° 0 mm 4 m/s 734 mmHg 73%
19:00 +11°C° 0 mm 4 m/s 734 mmHg 76%
20:00 +11°C° 0 mm 4 m/s 735 mmHg 76%
21:00 +11°C° 0 mm 4 m/s 735 mmHg 75%
22:00 +11°C° 0 mm 4 m/s 735 mmHg 75%
23:00 +11°C° 0 mm 4 m/s 735 mmHg 76%
Arată mai mult